EW9766 Weather Reports


Display with metric or nautical units.
time (UTC)temp
F
wind
direction
speed
MPH
gust
MPH
rain 1hr
in
rain 24hr
in
rain mn
in
humidity
%
barometer
mb
20260902010031 63 289 4.0 18.0 0.00 0.00 0.00 63 1011.1
20260902004534 64 291 6.0 16.0 0.00 0.00 0.00 64 1010.9
20260902003030 64 311 6.0 17.0 0.00 0.00 0.00 64 1010.8
20260902000031 64 331 7.0 16.0 0.00 0.00 0.00 65 1010.8
20260901234542 64 1 8.0 16.0 0.00 0.00 0.00 65 1010.9
20260901233035 65 339 7.0 16.0 0.00 0.00 0.00 63 1010.7
20260901231536 67 10 10.0 19.0 0.00 0.00 0.00 61 1010.6
20260901230035 68 18 8.0 14.0 0.00 0.00 0.00 60 1010.3
20260901224533 69 355 10.0 18.0 0.00 0.00 0.00 58 1010.2
20260901223035 71 344 8.0 14.0 0.00 0.00 0.00 58 1010.2
20260901221531 70 345 6.0 11.0 0.00 0.00 0.00 59 1010.2
20260901220108 69 21 9.0 18.0 0.00 0.00 0.00 59 1010.2
20260901214532 69 28 11.0 17.0 0.00 0.00 0.00 59 1010.3
20260901213035 69 16 11.0 16.0 0.00 0.00 0.00 59 1010.5
20260901211605 69 8 9.0 15.0 0.00 0.00 0.00 59 1010.6
20260901210030 69 7 9.0 15.0 0.00 0.00 0.00 59 1010.7
20260901204534 69 12 9.0 16.0 0.00 0.00 0.00 58 1010.8
20260901203036 68 19 9.0 16.0 0.00 0.00 0.00 58 1011.0
20260901201535 68 360 8.0 14.0 0.00 0.00 0.00 59 1011.2
20260901200032 67 10 9.0 14.0 0.00 0.00 0.00 59 1011.4
20260901194534 68 8 9.0 15.0 0.00 0.00 0.00 59 1011.5
20260901191537 67 16 7.0 12.0 0.00 0.00 0.00 61 1011.9
20260901190035 66 359 7.0 12.0 0.00 0.00 0.00 62 1012.0
20260901184534 65 358 8.0 13.0 0.00 0.00 0.00 63 1012.0
20260901183140 65 14 7.0 13.0 0.00 0.00 0.00 64 1012.2
20260901181533 64 360 7.0 14.0 0.00 0.00 0.00 66 1012.3
20260901180030 65 353 7.0 11.0 0.00 0.00 0.00 67 1012.3
20260901174536 63 359 4.0 11.0 0.00 0.00 0.00 71 1012.4
20260901173035 60 349 3.0 7.0 0.00 0.00 0.00 72 1012.5
20260901171534 60 339 4.0 9.0 0.00 0.00 0.00 73 1012.4
20260901170031 60 7 4.0 7.0 0.00 0.00 0.00 73 1012.4
20260901164531 58 2 2.0 4.0 0.00 0.00 0.00 75 1012.4
20260901161533 56 354 1.0 5.0 0.00 0.00 0.00 79 1012.3
20260901160031 55 40 0.0 3.0 0.00 0.00 0.00 80 1012.2
20260901154608 54 30 2.0 6.0 0.00 0.00 0.00 81 1012.1
20260901150037 48 159 3.0 6.0 0.00 0.00 0.00 84 1012.0
20260901144535 48 180 3.0 4.0 0.00 0.00 0.00 84 1011.9
20260901141536 48 180 3.0 4.0 0.00 0.00 0.00 81 1011.8
20260901140038 48 180 3.0 5.0 0.00 0.00 0.00 81 1011.7
20260901134531 48 179 3.0 5.0 0.00 0.00 0.00 81 1011.5
20260901133034 47 154 4.0 7.0 0.00 0.00 0.00 81 1011.4
20260901131535 46 132 4.0 7.0 0.00 0.00 0.00 80 1011.4
20260901130030 46 157 4.0 6.0 0.00 0.00 0.00 79 1011.3
20260901121538 48 171 3.0 5.0 0.00 0.00 0.00 75 1011.3
20260901120035 49 144 3.0 6.0 0.00 0.00 0.00 73 1011.1
20260901114532 51 137 3.0 8.0 0.00 0.00 0.00 71 1011.2
20260901113111 50 152 5.0 8.0 0.00 0.00 0.00 72 1011.2
20260901111532 49 141 5.0 9.0 0.00 0.00 0.00 73 1011.1
20260901110031 49 139 5.0 7.0 0.00 0.00 0.00 73 1011.2
20260901104641 50 147 2.0 5.0 0.00 0.00 0.00 72 1011.3
20260901103037 50 142 3.0 6.0 0.00 0.00 0.00 69 1011.3
20260901101605 52 153 3.0 6.0 0.00 0.00 0.00 66 1011.3
20260901100030 53 156 5.0 9.0 0.00 0.00 0.00 65 1011.3
20260901093150 52 144 5.0 9.0 0.00 0.00 0.00 68 1011.3
20260901091533 51 142 5.0 8.0 0.00 0.00 0.00 69 1011.3
20260901090032 51 144 5.0 7.0 0.00 0.00 0.00 69 1011.3
20260901084607 51 146 4.0 6.0 0.00 0.00 0.00 68 1011.3
20260901083035 52 139 4.0 7.0 0.00 0.00 0.00 65 1011.5
20260901081537 55 148 4.0 6.0 0.00 0.00 0.00 60 1011.5
20260901080034 56 136 5.0 8.0 0.00 0.00 0.00 56 1011.4
20260901073106 57 154 6.0 11.0 0.00 0.00 0.00 55 1011.3
20260901070107 59 159 6.0 10.0 0.00 0.00 0.00 55 1011.3
20260901064532 59 159 6.0 13.0 0.00 0.00 0.00 55 1011.4
20260901063030 59 154 6.0 11.0 0.00 0.00 0.00 55 1011.6
20260901061536 59 158 6.0 12.0 0.00 0.00 0.00 56 1011.7
20260901060032 59 160 6.0 11.0 0.00 0.00 0.00 58 1011.7
20260901054536 59 168 5.0 11.0 0.00 0.00 0.00 58 1011.8
20260901051532 59 179 6.0 10.0 0.00 0.00 0.00 58 1011.7
20260901050037 60 179 6.0 12.0 0.00 0.00 0.00 58 1011.8
20260901044535 60 161 5.0 9.0 0.00 0.00 0.00 58 1011.8
20260901040031 60 137 6.0 11.0 0.00 0.00 0.00 61 1011.5
20260901034607 59 144 7.0 10.0 0.00 0.00 0.00 65 1011.4
20260901033035 58 163 6.0 9.0 0.00 0.00 0.00 68 1011.2
20260901031532 58 176 6.0 8.0 0.00 0.00 0.00 70 1011.2
20260901030034 59 171 5.0 8.0 0.00 0.00 0.00 70 1011.3
20260901024534 59 168 5.0 7.0 0.00 0.00 0.00 71 1011.1
20260901023106 59 166 5.0 7.0 0.00 0.00 0.00 72 1011.0
20260901020036 60 138 4.0 5.0 0.00 0.00 0.00 72 1011.0
20260901014535 62 162 3.0 4.0 0.00 0.00 0.00 66 1011.0
20260901013031 66 188 2.0 3.0 0.00 0.00 0.00 59 1010.9